Starlink 31860

operational
NORAD ID: 59670 Int'l Des: 2024-084 Owner: SPXS Country: US Constellation: starlink
LEOCIRCULAR

Über Starlink 31860

Beschreibung wird geladen...

Live-Position

3D-Globus wird geladen...

Nächste Überflüge

Höhenverlauf

Altitude vs Time

uPlot chart will show altitude changes over time

Zweizeiliger Elementsatz

1 59670U 24084S 25305.66544688 .00006531 00000-0 24659-3 0 9991
2 59670 43.0042 41.3363 0001194 308.2069 51.8676 15.27586651 84815
Epoch: 1. Nov. 2025 • Age: 41 hours

Aktueller Status

Höhe 486.1 km
Geschwindigkeit 7.63 km/s
Subsatellitenpunkt 41.38°N, 77.73°W
Startdatum 6. Mai 2024
Alter 1.4 years
Typ internet

Technische Details

Klassifizierung Payload
Masse 730.00 kg
Trockenmasse 700.00 kg
Gesamtmasse 730.00 kg
Länge 0.30 m
Durchmesser 4.10 m
Spannweite 29.00 m
Form Box + pan
Hersteller SPXS
Bus-Typ Starlink V2M
Phasenstatus In Orbit
Besitzer/Staat SPXS/US

Große Konstellationen

Loading constellations...